Flag for Switzerland Weather past 2 weeks in Altdorf, Uri, Switzerland

Now
55 °F

Cool.


Feels Like: 52 °F
Forecast: 35 / 63 °F
Wind: 8 mph from Northwest

Location: Altdorf

Current Time: Apr 28, 2015 at 4:34:51 AM

Latest Report: Apr 28, 2015 at 3:00 AM


Visibility: N/A

Pressure: 29.64 "Hg

Humidity: 85%

Dew point: 50 °F

Location of AltdorfLocation

Historic Weather in Altdorf — Graph

°F

Altdorf temperature yesterday

Maximum temperature yesterday: 68 °F (at 5:00 PM)
Minimum temperature yesterday: 54 °F (at 6:00 AM)
Average temperature yesterday: 61 °F

Past Weeks' High & Low Weather Summary

 TemperatureHumidityPressure
High70 °F (Apr 15, 5:00 PM)95% (Apr 19, 4:00 AM)30.50 "Hg (Apr 19, 4:00 AM)
Low34 °F (Apr 19, 6:00 AM)27% (Apr 14, 4:00 PM)29.41 "Hg (Apr 27, 5:00 PM)
Average54 °F65%30.06 "Hg
* Reported Apr 13 3:00 AM — Apr 28 3:00 AM, Altdorf, Weather by CustomWeather, © 2015

Note: Actual official high and low records may vary slightly from our data, if they occured in-between our weather recording intervals... More about our weather records

Advertising

Altdorf weather history for previous 24 hours

 ConditionsComfort  
Time TempWeatherWind HumidityBarometerVisibility
3:00 AM
Tue, Apr 28
55 °FCool.8 mph85%29.64 "HgN/A
2:00 AM57 °FOvercast.5 mph76%29.61 "Hg14 mi
1:00 AM57 °FCool.7 mph76%29.59 "HgN/A
12:00 AM58 °FCool.5 mph73%29.57 "HgN/A
11:00 PM
Mon, Apr 27
58 °FPassing clouds.3 mph66%29.54 "Hg14 mi
10:00 PM61 °FRefreshingly cool.8 mph44%29.50 "HgN/A
9:00 PM63 °FMild.7 mph40%29.47 "HgN/A
8:00 PM65 °FOvercast.13 mph38%29.44 "Hg12 mi
7:00 PM66 °FMild.13 mph39%29.44 "HgN/A
6:00 PM67 °FMild.17 mph40%29.41 "HgN/A
5:00 PM68 °FPartly sunny.21 mph34%29.41 "Hg14 mi
4:00 PM66 °FMild.5 mph62%29.44 "HgN/A
3:00 PM60 °FCool.8 mph73%29.50 "HgN/A
2:00 PM61 °FOvercast.8 mph69%29.50 "Hg14 mi
1:00 PM59 °FCool.7 mph74%29.54 "HgN/A
12:00 PM60 °FCool.7 mph74%29.55 "HgN/A
11:00 AM63 °FPartly sunny.10 mph67%29.55 "Hg16 mi
10:00 AM58 °FCool.6 mph76%29.57 "HgN/A
9:00 AM57 °FCool.7 mph77%29.59 "HgN/A
8:00 AM55 °FOvercast.2 mph79%29.59 "Hg12 mi
7:00 AM55 °FCool.3 mph76%29.58 "HgN/A
6:00 AM54 °FCool.6 mph81%29.58 "HgN/A
5:00 AM55 °FPassing clouds.14 mph79%29.59 "Hg19 mi
4:00 AM64 °FMild.17 mph36%29.57 "HgN/A
Weather by CustomWeather, © 2015

See weather overviewHow to use our weather pages